EW2692 Weather Reports


Display with metric or nautical units.
time (UTC)temp
F
wind
direction
speed
MPH
gust
MPH
rain 1hr
in
rain 24hr
in
rain mn
in
humidity
%
barometer
mb
20260901153101 62 246 0.0 0.0 0.00 0.00 0.00 64 942.6
20260901151600 62 246 0.0 0.0 0.00 0.00 0.00 66 942.6
20260901150055 60 246 0.0 0.0 0.00 0.00 0.00 70 942.7
20260901144548 59 246 0.0 2.0 0.00 0.00 0.00 72 942.8
20260901143047 57 290 0.0 1.0 0.00 0.00 0.00 79 942.8
20260901141544 54 290 0.0 0.0 0.00 0.00 0.00 85 942.7
20260901140034 51 290 0.0 0.0 0.00 0.00 0.00 91 942.8
20260901134534 50 290 0.0 1.0 0.00 0.00 0.00 93 942.8
20260901133038 48 290 0.0 0.0 0.00 0.00 0.00 94 942.7
20260901131539 46 290 0.0 0.0 0.00 0.00 0.00 95 942.8
20260901130032 44 290 0.0 0.0 0.00 0.00 0.00 94 942.8
20260901124531 44 290 0.0 0.0 0.00 0.00 0.00 93 942.8
20260901123036 44 290 0.0 0.0 0.00 0.00 0.00 92 942.6
20260901121525 44 290 0.0 0.0 0.00 0.00 0.00 92 942.5
20260901120024 44 290 0.0 1.0 0.00 0.00 0.00 92 942.4
20260901114526 44 290 0.0 0.0 0.00 0.00 0.00 92 942.3
20260901113024 44 290 0.0 1.0 0.00 0.00 0.00 91 942.4
20260901111521 45 290 0.0 0.0 0.00 0.00 0.00 90 942.4
20260901110018 45 290 0.0 0.0 0.00 0.00 0.00 91 942.1
20260901104516 46 290 0.0 0.0 0.00 0.00 0.00 92 942.0
20260901103017 46 290 0.0 0.0 0.00 0.00 0.00 91 942.1
20260901101515 46 290 0.0 1.0 0.00 0.00 0.00 91 942.0
20260901100014 46 290 0.0 1.0 0.00 0.00 0.00 91 942.0
20260901094512 47 290 0.0 0.0 0.00 0.00 0.00 90 942.1
20260901093009 47 290 0.0 0.0 0.00 0.00 0.00 89 942.0
20260901091508 48 290 0.0 1.0 0.00 0.00 0.00 89 942.0
20260901090016 48 290 0.0 1.0 0.00 0.00 0.00 89 942.0
20260901084507 48 290 0.0 0.0 0.00 0.00 0.00 90 941.7
20260901083007 48 290 0.0 0.0 0.00 0.00 0.00 90 942.0
20260901081505 48 290 0.0 0.0 0.00 0.00 0.00 90 941.8
20260901080006 47 290 0.0 1.0 0.00 0.00 0.00 89 941.6
20260901074502 47 290 0.0 0.0 0.00 0.00 0.00 87 941.6
20260901073100 48 290 0.0 0.0 0.00 0.00 0.00 86 941.6
20260901071604 48 290 0.0 0.0 0.00 0.00 0.00 86 941.5
20260901070055 49 290 0.0 1.0 0.00 0.00 0.00 84 941.5
20260901064554 49 290 0.0 0.0 0.00 0.00 0.00 85 941.3
20260901063101 49 290 0.0 1.0 0.00 0.00 0.00 83 941.3
20260901061549 50 290 0.0 0.0 0.00 0.00 0.00 81 941.4
20260901060044 51 290 0.0 0.0 0.00 0.00 0.00 81 941.0
20260901054543 51 290 0.0 0.0 0.00 0.00 0.00 79 940.8
20260901053056 52 290 0.0 0.0 0.00 0.00 0.00 77 941.0
20260901051541 53 290 0.0 0.0 0.00 0.00 0.00 75 940.9
20260901050041 55 290 0.0 1.0 0.00 0.00 0.00 73 941.1
20260901044550 56 290 0.0 0.0 0.00 0.00 0.00 72 941.1
20260901043040 57 290 0.0 0.0 0.00 0.00 0.00 70 941.2
20260901041553 58 290 0.0 0.0 0.00 0.00 0.00 68 941.1
20260901040049 58 290 0.0 0.0 0.00 0.00 0.00 67 941.2
20260901034536 59 290 0.0 0.0 0.00 0.00 0.00 65 941.1
20260901033036 60 290 0.0 0.0 0.00 0.00 0.00 63 940.9
20260901031533 61 290 0.0 0.0 0.00 0.00 0.00 61 940.7
20260901030031 62 290 0.0 1.0 0.00 0.00 0.00 59 940.6
20260901024529 64 290 0.0 1.0 0.00 0.00 0.00 56 940.4
20260901023027 66 290 0.0 0.0 0.00 0.00 0.00 53 940.1
20260901021532 68 290 0.0 1.0 0.00 0.00 0.00 50 939.8
20260901020022 69 289 0.0 2.0 0.00 0.00 0.00 48 939.6
20260901014520 71 283 1.0 4.0 0.00 0.00 0.00 45 939.4
20260901013019 72 276 2.0 6.0 0.00 0.00 0.00 43 939.1
20260901011616 73 284 4.0 9.0 0.00 0.00 0.00 41 939.0
20260901010024 75 270 6.0 11.0 0.00 0.00 0.00 39 938.9
20260901004513 75 276 6.0 15.0 0.00 0.00 0.00 39 938.8
20260901003018 76 287 9.0 15.0 0.00 0.00 0.00 38 938.7
20260901001517 76 267 8.0 16.0 0.00 0.00 0.00 38 938.5
20260901000010 77 310 8.0 18.0 0.00 0.00 0.00 36 938.5
20260831234510 77 298 7.0 15.0 0.00 0.00 0.00 37 938.5
20260831233012 77 316 10.0 26.0 0.00 0.00 0.00 36 938.4
20260831231516 78 269 7.0 20.0 0.00 0.00 0.00 36 938.4
20260831230008 78 273 5.0 21.0 0.00 0.00 0.00 36 938.2
20260831224505 78 256 9.0 20.0 0.00 0.00 0.00 35 938.2
20260831223005 78 324 12.0 23.0 0.00 0.00 0.00 36 938.1
20260831221503 78 273 10.0 26.0 0.00 0.00 0.00 36 938.0
20260831220004 78 284 10.0 19.0 0.00 0.00 0.00 35 937.9
20260831214610 78 277 8.0 19.0 0.00 0.09 0.00 35 937.8
20260831213103 78 288 13.0 26.0 0.00 0.09 0.00 36 937.7
20260831211558 78 303 8.0 21.0 0.00 0.09 0.00 35 937.7
20260831210057 78 277 13.0 26.0 0.00 0.09 0.00 35 937.5
20260831204603 78 285 11.0 27.0 0.00 0.09 0.00 36 937.7
20260831203058 78 309 12.0 25.0 0.00 0.09 0.00 37 937.5
20260831201553 77 298 8.0 25.0 0.00 0.09 0.00 38 937.3
20260831200104 77 261 12.0 25.0 0.00 0.09 0.00 37 937.4
20260831194621 77 252 11.0 23.0 0.00 0.09 0.00 38 937.0
20260831193048 77 259 9.0 29.0 0.00 0.09 0.00 38 936.8
20260831191546 76 301 15.0 29.0 0.00 0.09 0.00 37 936.8
20260831190052 76 239 12.0 30.0 0.00 0.09 0.00 38 936.4
20260831184543 76 274 14.0 31.0 0.00 0.09 0.00 38 936.4
20260831183041 75 267 10.0 26.0 0.00 0.09 0.00 41 936.4
20260831181539 75 269 9.0 26.0 0.00 0.09 0.00 42 936.3
20260831180037 74 271 11.0 27.0 0.00 0.09 0.00 43 936.2
20260831174536 73 271 11.0 33.0 0.00 0.09 0.00 45 936.2
20260831173033 73 271 15.0 29.0 0.00 0.09 0.00 45 936.1
20260831171531 73 316 11.0 28.0 0.00 0.09 0.00 48 936.0
20260831170038 71 263 10.0 23.0 0.00 0.09 0.00 50 936.0
20260831164527 71 250 7.0 24.0 0.00 0.10 0.00 50 935.9
20260831163025 70 258 8.0 24.0 0.00 0.10 0.00 51 935.8
20260831161521 69 270 7.0 20.0 0.00 0.10 0.00 51 935.7
20260831160018 68 257 6.0 25.0 0.00 0.10 0.00 52 935.5
20260831154528 66 275 7.0 26.0 0.00 0.10 0.00 52 935.3